Weather History for West Palm Beach, FL

Change the Weather History Date:

Monday, December 30, 2013

  Actual Average Record
Temperature  
Mean Temperature 74 °F 66 °F  
Max Temperature 78 °F 75 °F 86 °F (1950)
Min Temperature 69 °F 58 °F 32 °F (1909)
Degree Days  
Heating Degree Days 0 3  
Month to date heating degree days 0 55  
Since 1 July heating degree days 4 67  
Cooling Degree Days 9 4  
Month to date cooling degree days 289 151  
Year to date cooling degree days 4490 4017  
Growing Degree Days 24 (Base 50)    
Moisture  
Dew Point 68 °F    
Average Humidity 83    
Maximum Humidity 93    
Minimum Humidity 73    
Precipitation  
Precipitation 0.02 in 0.10 in 2.06 in (1949)
Month to date precipitation 4.34 3.27  
Year to date precipitation 64.98 62.22  
Snow  
Snow 0.00 in - - ()
Month to date snowfall 0.0  
Since 1 July snowfall 0.0  
Snow Depth 0.00 in    
Sea Level Pressure  
Sea Level Pressure 30.06 in    
Wind  
Wind Speed 6 mph (NW)    
Max Wind Speed 14 mph    
Max Gust Speed 15 mph    
Visibility 9 miles    
Events Rain    
T = Trace of Precipitation, MM = Missing Value Source: NWS Daily Summary

Daily Weather History Graph

Daily Weather History Graph

Search for Another Location

Airport:

Trip Planner

Search our weather history database for the weather conditions in past years. The results will help you decide how hot, cold, wet, or windy it might be!

Date:

Astronomy

Dec. 30, 2013 Rise Set
Actual Time 7:08 AM EST 5:37 PM EST
Civil Twilight 6:43 AM EST 6:03 PM EST
Nautical Twilight 6:14 AM EST 6:32 PM EST
Astronomical Twilight 5:45 AM EST 7:00 PM EST
Moon 5:01 AM EST (12/30) 4:05 PM EST (12/30)
Length of Visible Light 11h 20m
Length of Day
10h 29m
Waning Crescent, 5% of the Moon is Illuminated
Dec 30
Waning Crescent
Jan 1
New
Jan 7
First Quarter
Jan 15
Full
Jan 24
Last Quarter

Hourly Weather History & Observations

Time (EST) Temp. Dew Point Humidity Pressure Visibility Wind Dir Wind Speed Gust Speed Precip Events Conditions
12:25 AM 73.4 °F 71.6 °F 94% 30.00 in 10.0 mi WSW 4.6 mph - N/A   Mostly Cloudy
12:53 AM 73.9 °F 71.1 °F 91% 30.00 in 10.0 mi WSW 4.6 mph - N/A   Mostly Cloudy
1:37 AM 73.4 °F 71.6 °F 94% 30.01 in 10.0 mi West 8.1 mph - N/A   Overcast
1:53 AM 73.9 °F 70.0 °F 87% 30.00 in 10.0 mi West 6.9 mph - N/A   Overcast
2:43 AM 73.4 °F 69.8 °F 88% 29.98 in 10.0 mi West 3.5 mph - N/A   Scattered Clouds
2:53 AM 73.0 °F 69.1 °F 87% 29.98 in 10.0 mi Calm Calm - N/A   Scattered Clouds
3:53 AM 72.0 °F 69.1 °F 91% 29.99 in 10.0 mi Calm Calm - N/A   Partly Cloudy
4:53 AM 72.0 °F 70.0 °F 93% 30.00 in 10.0 mi SW 3.5 mph - N/A   Mostly Cloudy
5:53 AM 72.0 °F 70.0 °F 93% 30.01 in 10.0 mi SW 4.6 mph - N/A   Mostly Cloudy
6:37 AM 71.6 °F 69.8 °F 94% 30.02 in 10.0 mi SW 3.5 mph - N/A   Overcast
6:53 AM 72.0 °F 70.0 °F 93% 30.02 in 9.0 mi WSW 3.5 mph - N/A   Overcast
6:57 AM 71.6 °F 69.8 °F 94% 30.02 in 10.0 mi WSW 4.6 mph - N/A   Mostly Cloudy
7:04 AM 71.6 °F 69.8 °F 94% 30.03 in 10.0 mi WSW 4.6 mph - N/A   Overcast
7:53 AM 72.0 °F 70.0 °F 93% 30.04 in 5.0 mi WNW 4.6 mph - N/A   Mostly Cloudy
8:53 AM 71.1 °F 69.1 °F 93% 30.09 in 6.0 mi WNW 6.9 mph - N/A   Overcast
9:06 AM 71.6 °F 69.8 °F 94% 30.09 in 4.0 mi NW 6.9 mph - 0.00 in Rain Light Rain
9:14 AM 69.8 °F 68.0 °F 94% 30.09 in 1.0 mi NW 11.5 mph - 0.00 in Rain Light Rain
9:53 AM 70.0 °F 68.0 °F 93% 30.10 in 1.8 mi WNW 4.6 mph - 0.02 in Rain Light Rain
10:04 AM 69.8 °F 68.0 °F 94% 30.10 in 3.0 mi Calm Calm - 0.00 in Rain Light Rain
10:12 AM 69.8 °F 66.2 °F 88% 30.10 in 6.0 mi WNW 3.5 mph - 0.00 in   Overcast
10:39 AM 71.6 °F 68.0 °F 88% 30.09 in 10.0 mi NNW 4.6 mph - 0.00 in   Mostly Cloudy
10:53 AM 73.0 °F 69.1 °F 87% 30.10 in 10.0 mi WNW 4.6 mph - 0.00 in   Mostly Cloudy
11:50 AM 73.4 °F 66.2 °F 78% 30.10 in 10.0 mi NNW 8.1 mph - N/A   Mostly Cloudy
11:53 AM 73.0 °F 66.9 °F 81% 30.09 in 10.0 mi NW 6.9 mph - N/A   Mostly Cloudy
12:24 PM 73.4 °F 66.2 °F 78% 30.08 in 10.0 mi NW 3.5 mph - N/A   Mostly Cloudy
12:53 PM 75.9 °F 68.0 °F 76% 30.07 in 10.0 mi North 4.6 mph - N/A   Mostly Cloudy
1:53 PM 75.9 °F 66.9 °F 74% 30.06 in 10.0 mi NNW 4.6 mph - N/A   Mostly Cloudy
2:36 PM 77.0 °F 66.2 °F 69% 30.05 in 10.0 mi NNE 3.5 mph - N/A   Overcast
2:53 PM 75.9 °F 66.9 °F 74% 30.06 in 10.0 mi NNE 5.8 mph - N/A   Overcast
3:53 PM 73.9 °F 66.0 °F 76% 30.06 in 10.0 mi North 9.2 mph - N/A   Overcast
4:53 PM 73.0 °F 64.9 °F 76% 30.08 in 10.0 mi North 9.2 mph - N/A   Mostly Cloudy
5:25 PM 71.6 °F 64.4 °F 78% 30.07 in 10.0 mi NNE 8.1 mph - N/A   Mostly Cloudy
5:53 PM 72.0 °F 64.9 °F 78% 30.08 in 10.0 mi North 9.2 mph - N/A   Mostly Cloudy
6:53 PM 72.0 °F 64.9 °F 78% 30.09 in 10.0 mi North 6.9 mph - N/A   Mostly Cloudy
7:53 PM 71.1 °F 64.9 °F 81% 30.11 in 10.0 mi NNW 10.4 mph - N/A   Overcast
8:43 PM 71.6 °F 64.4 °F 78% 30.13 in 10.0 mi North 10.4 mph - N/A   Overcast
8:53 PM 71.1 °F 64.0 °F 78% 30.13 in 10.0 mi North 5.8 mph - N/A   Overcast
9:53 PM 70.0 °F 63.0 °F 78% 30.14 in 10.0 mi North 9.2 mph - N/A   Overcast
10:39 PM 69.8 °F 62.6 °F 78% 30.15 in 10.0 mi North 9.2 mph - N/A   Overcast
10:53 PM 70.0 °F 63.0 °F 78% 30.15 in 10.0 mi North 6.9 mph - N/A   Mostly Cloudy
11:53 PM 69.1 °F 62.1 °F 78% 30.14 in 10.0 mi NNW 8.1 mph - N/A   Overcast